[[{"header":{"parameterUnit":"m.s-1","parameterCategory":2,"la1":30.2991,"la2":30.254,"lo1":-89.0895,"lo2":-89.0444,"dy":0.0017,"dx":0.0017,"nx":28,"ny":28,"refTime":"2026-02-09T03:00:00:Z","depth":"0","parameterNumber":2,"parameterNumberName":"U-component_of_CURRENTS"},"data":[0,0,0,0,0,0,0,0,0,0,0,0,0,0,0,0,0,0,0,0,0,0,0,0,0,0,0,0,0,0,0,0,0,0,0,0,0,0,0,0,0,0,0,0,0,0,0,0,0,0,0,0,0,0,0,0,0,0,-0.3299,-0.3297,0,-0.3128,-0.3126,-0.3124,-0.3157,-0.3161,-0.3164,-0.3168,-0.3072,-0.3067,-0.3061,0,0,0,0,0,0,0,0,0,0,0,0,0,-0.3501,-0.3497,-0.3299,-0.3297,-0.3295,-0.3129,-0.3126,-0.3123,-0.3157,-0.3161,-0.3165,-0.3169,-0.3074,-0.3068,-0.3061,0,0,0,0,0,0,0,0,0,0,0,0,0,-0.3376,-0.3496,-0.3299,-0.3295,-0.3294,-0.3129,-0.3126,-0.3122,-0.3156,-0.3161,-0.3166,-0.3171,-0.3077,-0.3068,-0.306,-0.29,0,0,-0.3033,-0.3029,0,0,0,0,0,0,0,0,-0.3383,-0.3368,-0.3298,-0.3295,-0.3293,-0.3173,-0.3162,-0.3053,-0.3154,-0.3203,-0.3168,-0.3174,-0.3112,-0.3101,-0.305,-0.2896,-0.2892,-0.3032,-0.3027,-0.3023,-0.3021,0,0,0,0,0,0,0,-0.3392,-0.3375,-0.3227,-0.3296,-0.3293,-0.325,-0.3239,-0.314,-0.3128,-0.3199,-0.3203,-0.3189,-0.3112,-0.3058,-0.3048,-0.289,-0.3032,-0.3025,-0.3019,-0.3016,-0.2679,-0.2675,0,0,0,0,0,0,-0.3423,-0.3383,-0.3232,-0.3222,-0.3357,-0.3243,-0.3231,-0.3203,-0.3128,-0.3122,-0.3185,-0.3191,-0.307,-0.3058,-0.3045,-0.3005,-0.3023,-0.3015,-0.301,-0.2682,-0.2678,-0.2674,0,0,0,0,0,0,-0.3428,-0.3411,-0.3239,-0.3304,-0.328,-0.3236,-0.3203,-0.3197,-0.3164,-0.3116,-0.3113,-0.3163,-0.3074,-0.3057,-0.2966,-0.2997,-0.3011,-0.3003,-0.2687,-0.2681,-0.2676,-0.2827,0,0,0,0,0,0,-0.3434,-0.3413,-0.3388,-0.3305,-0.3278,-0.3171,-0.3198,-0.319,-0.3148,-0.3156,-0.3094,-0.309,-0.3077,-0.2979,-0.2957,-0.2985,-0.2996,-0.2692,-0.2684,-0.2678,-0.2827,-0.2828,-0.2828,0,0,0,0,0,-0.3441,-0.3388,-0.3387,-0.3369,-0.325,-0.317,-0.3151,-0.3134,-0.3143,-0.3123,-0.3072,-0.3093,-0.2921,-0.2967,-0.2943,-0.2971,-0.2695,-0.2686,-0.2678,-0.2827,-0.2828,-0.2828,0,0,0,0,0,0,-0.3451,-0.3383,-0.3383,-0.3309,-0.3263,-0.3179,-0.314,-0.3121,-0.3054,-0.3066,-0.3028,-0.3017,-0.2951,-0.2893,-0.2946,-0.2837,-0.2815,-0.2801,-0.2936,-0.2936,-0.2936,-0.3027,-0.2989,0,0,0,0,0,-0.3442,-0.3386,-0.3334,-0.3269,-0.3253,-0.3191,-0.3149,-0.3143,-0.3079,-0.3057,-0.3012,-0.2946,-0.2879,-0.2862,-0.2779,-0.2704,-0.2689,-0.2698,-0.2699,-0.2701,-0.2747,-0.2751,-0.2761,-0.2646,-0.2646,-0.2647,0,0,-0.3414,-0.3376,-0.3338,-0.3268,-0.3224,-0.321,-0.3179,-0.3125,-0.3125,-0.3049,-0.301,-0.2931,-0.2846,-0.2789,-0.2756,-0.2765,-0.2704,-0.269,-0.2694,-0.274,-0.2744,-0.2757,-0.2769,-0.2641,-0.2642,-0.2643,0,0,-0.3367,-0.3316,-0.3281,-0.3261,-0.322,-0.3191,-0.3185,-0.3115,-0.3105,-0.3029,-0.2991,-0.2942,-0.2803,-0.2799,-0.2766,-0.2696,-0.2691,-0.2642,-0.2755,-0.2758,-0.2772,-0.2784,-0.2731,-0.2737,-0.2668,-0.2668,-0.2668,0,-0.3345,-0.3313,-0.3255,-0.3253,-0.3248,-0.32,-0.3203,-0.3164,-0.3077,-0.3074,-0.3044,-0.2896,-0.2832,-0.2818,-0.2808,-0.272,-0.2688,-0.2787,-0.2775,-0.2786,-0.2796,-0.2739,-0.2744,-0.2674,-0.2674,-0.2673,-0.2672,0,-0.3304,-0.3299,-0.3276,-0.3276,-0.3255,-0.3234,-0.3218,-0.3197,-0.3167,-0.3144,-0.3095,-0.2995,-0.2938,-0.2894,-0.2838,-0.2862,-0.2801,-0.2772,-0.2815,-0.282,-0.2754,-0.2757,-0.2683,-0.2681,-0.2679,-0.2678,0,0,-0.3199,-0.3245,-0.3239,-0.3287,-0.328,-0.3262,-0.3275,-0.3275,-0.3305,-0.3229,-0.3256,-0.3149,-0.3114,-0.307,-0.2996,-0.301,-0.3028,-0.2936,-0.2933,-0.2956,-0.2994,-0.2818,-0.2804,-0.3011,-0.3014,-0.3015,-0.2906,0,-0.3194,-0.3235,-0.3247,-0.3292,-0.3323,-0.333,-0.3351,-0.3354,-0.3338,-0.3344,-0.3295,-0.3254,-0.3175,-0.3146,-0.3156,-0.3038,-0.3049,-0.3057,-0.2922,-0.2918,-0.2825,-0.2807,-0.268,-0.2562,-0.2909,-0.2909,-0.291,0,-0.3157,-0.3204,-0.3261,-0.3362,-0.3373,-0.3395,-0.3453,-0.3464,-0.3485,-0.3473,-0.347,-0.3407,-0.3386,-0.332,-0.3224,-0.3227,-0.314,-0.3068,-0.3062,-0.2867,-0.275,-0.2611,-0.2554,-0.2537,-0.2914,-0.2914,-0.2914,0,-0.3121,-0.3214,-0.3273,-0.33,-0.339,-0.3427,-0.3464,-0.3501,-0.3509,-0.3555,-0.3532,-0.3535,-0.3445,-0.3417,-0.3206,-0.3238,-0.3078,-0.31,-0.287,-0.2853,-0.2705,-0.2671,-0.2689,-0.3087,-0.3088,-0.3088,-0.3088,0,-0.31,-0.3142,-0.3276,-0.3297,-0.3384,-0.3443,-0.3509,-0.3547,-0.3585,-0.3545,-0.3582,-0.3496,-0.3462,-0.333,-0.3248,-0.3008,-0.3096,-0.2897,-0.283,-0.2735,-0.2707,-0.265,-0.2681,-0.3084,-0.3085,-0.3085,-0.3086,0,-0.3014,-0.3102,-0.3186,-0.3318,-0.3362,-0.3414,-0.3507,-0.3518,-0.3572,-0.3516,-0.3511,-0.3441,-0.326,-0.3179,-0.3049,-0.296,-0.2762,-0.2727,-0.2577,-0.2495,-0.2327,-0.2369,-0.2303,-0.2238,-0.2537,-0.2532,-0.2528,0,-0.2956,-0.2995,-0.3171,-0.3209,-0.3261,-0.3359,-0.3378,-0.3486,-0.3458,-0.3404,-0.3315,-0.3185,-0.2987,-0.2746,-0.2623,-0.2479,-0.2509,-0.2282,-0.2356,-0.2306,-0.2305,-0.2353,-0.2309,-0.2193,-0.2186,-0.2181,-0.2177,0,-0.2835,-0.2913,-0.2986,-0.3088,-0.3139,-0.3193,-0.3222,-0.3202,-0.3225,-0.3156,-0.2945,-0.2817,-0.2591,-0.2357,-0.2196,-0.2111,-0.2241,-0.2168,-0.2186,-0.2101,-0.209,-0.1994,-0.2246,-0.213,-0.2135,-0.2138,-0.2141,-0.2143,-0.2717,-0.2754,-0.2854,-0.2931,-0.2986,-0.2935,-0.2852,-0.285,-0.2753,-0.2551,-0.256,-0.2316,-0.2196,-0.1955,-0.1851,-0.1715,-0.1851,-0.1717,-0.1784,-0.1846,-0.1763,-0.1873,-0.1638,-0.164,-0.1641,-0.1643,-0.1644,0,-0.2523,-0.2586,-0.2663,-0.2712,-0.2657,-0.2753,-0.2649,-0.2491,-0.2252,-0.219,-0.2013,-0.1844,-0.1649,-0.1598,-0.1474,-0.1388,-0.1404,-0.1374,-0.1475,-0.146,-0.1602,-0.1565,-0.1217,-0.1217,-0.1217,-0.1217,-0.1217,-0.1217,-0.2415,-0.242,-0.2484,-0.2368,-0.2359,-0.2124,-0.1989,-0.1819,-0.1714,-0.1464,-0.1381,-0.1321,-0.1371,-0.1473,-0.135,-0.127,-0.1293,-0.1211,-0.128,-0.1449,-0.149,-0.1529,-0.1503,-0.1148,-0.1148,-0.1082,-0.1082,-0.1082]},{"header":{"parameterUnit":"m.s-1","parameterCategory":2,"la1":30.2991,"la2":30.254,"lo1":-89.0895,"lo2":-89.0444,"dy":0.0017,"dx":0.0017,"nx":28,"ny":28,"refTime":"2026-02-09T03:00:00:Z","depth":"0","parameterNumber":3,"parameterNumberName":"V-component_of_CURRENTS"},"data":[0,0,0,0,0,0,0,0,0,0,0,0,0,0,0,0,0,0,0,0,0,0,0,0,0,0,0,0,0,0,0,0,0,0,0,0,0,0,0,0,0,0,0,0,0,0,0,0,0,0,0,0,0,0,0,0,0,0,0.0334,0.0335,0,0.0393,0.0394,0.0395,0.0381,0.038,0.0379,0.0377,0.0411,0.0413,0.0415,0,0,0,0,0,0,0,0,0,0,0,0,0,0.0154,0.0158,0.0334,0.0335,0.0335,0.0393,0.0394,0.0395,0.0381,0.038,0.0378,0.0377,0.041,0.0412,0.0415,0,0,0,0,0,0,0,0,0,0,0,0,0,0.0226,0.0159,0.0334,0.0334,0.0334,0.0393,0.0394,0.0396,0.0382,0.038,0.0378,0.0376,0.0409,0.0412,0.0415,0.0474,0,0,0.0425,0.0426,0,0,0,0,0,0,0,0,0.0222,0.0233,0.0333,0.0334,0.0335,0.0376,0.0343,0.042,0.0382,0.0366,0.0377,0.0375,0.0397,0.0401,0.042,0.0476,0.0477,0.0425,0.0427,0.0429,0.0429,0,0,0,0,0,0,0,0.0217,0.023,0.036,0.0334,0.0335,0.0312,0.0321,0.0357,0.0393,0.0367,0.0366,0.037,0.0397,0.0417,0.042,0.0478,0.0425,0.0428,0.043,0.0431,0.0554,0.0556,0,0,0,0,0,0,0.0212,0.0227,0.0358,0.0361,0.027,0.0317,0.0327,0.0366,0.0393,0.0395,0.0372,0.0369,0.0412,0.0417,0.0421,0.0411,0.0429,0.0432,0.0433,0.0553,0.0555,0.0556,0,0,0,0,0,0,0.0209,0.0225,0.0355,0.0291,0.0305,0.0322,0.0367,0.0369,0.0378,0.0396,0.0397,0.0377,0.0411,0.0417,0.0452,0.0415,0.0433,0.0436,0.0551,0.0554,0.0555,0.0443,0,0,0,0,0,0,0.0204,0.0225,0.0255,0.0292,0.0309,0.0374,0.0368,0.0371,0.0383,0.0381,0.0402,0.0403,0.041,0.0448,0.0455,0.042,0.0438,0.055,0.0552,0.0555,0.0445,0.0441,0.0438,0,0,0,0,0,0.0198,0.0238,0.0257,0.0272,0.0351,0.0374,0.038,0.0385,0.0385,0.0388,0.0412,0.0402,0.0469,0.0452,0.0461,0.0425,0.0548,0.0552,0.0555,0.0447,0.0442,0.0438,0,0,0,0,0,0,0.0189,0.0241,0.0262,0.0322,0.034,0.037,0.0373,0.0388,0.0414,0.0406,0.0428,0.0432,0.0449,0.0478,0.0459,0.0477,0.0505,0.051,0.042,0.0416,0.0412,0.0383,0.0441,0,0,0,0,0,0.0203,0.0236,0.028,0.0325,0.0329,0.0356,0.0369,0.0373,0.0397,0.0405,0.0426,0.0454,0.0475,0.0476,0.0511,0.0526,0.0559,0.0513,0.0509,0.0505,0.0494,0.0534,0.0531,0.0566,0.0566,0.0566,0,0,0.0214,0.0244,0.0267,0.0322,0.0334,0.0303,0.0358,0.0366,0.0336,0.0408,0.039,0.0449,0.0485,0.0492,0.05,0.0501,0.0516,0.0509,0.0504,0.0496,0.0537,0.0533,0.0529,0.0568,0.0568,0.0568,0,0,0.0185,0.0274,0.0252,0.0259,0.0269,0.0284,0.0283,0.0313,0.0323,0.0341,0.0374,0.0424,0.0458,0.047,0.048,0.0491,0.0507,0.0499,0.0432,0.047,0.0466,0.0463,0.0498,0.0499,0.048,0.048,0.048,0,0.0183,0.0171,0.025,0.0203,0.0186,0.026,0.0197,0.0226,0.0266,0.0288,0.0316,0.0407,0.044,0.0439,0.0435,0.0473,0.0501,0.0429,0.0459,0.0457,0.0455,0.0492,0.0494,0.0475,0.0476,0.0476,0.0477,0,0.01,0.0087,0.0073,0.0034,0.0041,0.0012,0.0045,0.0071,0.0113,0.0155,0.0212,0.0294,0.0343,0.0363,0.0391,0.0396,0.0422,0.0455,0.0452,0.0444,0.0485,0.0489,0.0468,0.047,0.0471,0.0472,0,0,0.0074,0.0018,0.0004,-0.0053,-0.0057,-0.0064,-0.0086,-0.0072,-0.0059,0.0018,0.0042,0.0108,0.0201,0.0224,0.0286,0.032,0.0338,0.0368,0.0372,0.0369,0.0416,0.0432,0.0439,0.0365,0.0365,0.0365,0.0445,0,-0.0042,-0.0178,-0.0161,-0.0282,-0.0353,-0.0283,-0.0299,-0.0255,-0.0175,-0.0111,0.0004,0.0064,0.0128,0.0171,0.021,0.0328,0.0345,0.0313,0.0454,0.0458,0.0446,0.0443,0.0494,0.0569,0.045,0.0451,0.0451,0,-0.0164,-0.0243,-0.0392,-0.0451,-0.0467,-0.0503,-0.0478,-0.0477,-0.0352,-0.0276,-0.0177,-0.0055,0.0024,0.009,0.0231,0.0206,0.0285,0.0372,0.0378,0.0432,0.0482,0.0565,0.0582,0.0747,0.0458,0.0458,0.0457,0,-0.0278,-0.0399,-0.0525,-0.0554,-0.0601,-0.0619,-0.0617,-0.0521,-0.048,-0.0362,-0.0286,-0.0167,-0.0078,0.0033,0.0208,0.022,0.0371,0.0414,0.0495,0.0498,0.059,0.0599,0.0755,0.0482,0.0482,0.0481,0.0481,0,-0.0423,-0.0517,-0.0582,-0.0657,-0.0746,-0.0724,-0.0744,-0.0698,-0.0585,-0.0524,-0.0374,-0.0292,-0.0086,0.0045,0.0176,0.0345,0.0337,0.048,0.0517,0.0555,0.056,0.0748,0.081,0.0484,0.0484,0.0483,0.0483,0,-0.0531,-0.0585,-0.0726,-0.0802,-0.0813,-0.0869,-0.0833,-0.0806,-0.0704,-0.0615,-0.0576,-0.0372,-0.0202,-0.0008,0.0198,0.0313,0.0568,0.0513,0.0541,0.0579,0.0821,0.0874,0.1038,0.1134,0.0637,0.0638,0.0639,0,-0.0596,-0.0692,-0.0827,-0.0879,-0.0915,-0.0964,-0.0961,-0.0882,-0.0831,-0.0662,-0.0618,-0.0424,-0.0275,0.0028,0.0263,0.0486,0.0606,0.0648,0.0682,0.0834,0.0922,0.0954,0.1026,0.077,0.0771,0.0773,0.0774,0,-0.0716,-0.0765,-0.0874,-0.0987,-0.1029,-0.1068,-0.1058,-0.103,-0.0909,-0.0817,-0.0674,-0.0541,-0.0221,0.008,0.0371,0.0511,0.0783,0.0683,0.085,0.1036,0.1075,0.1186,0.0712,0.0786,0.0785,0.0784,0.0783,0.0783,-0.0767,-0.0861,-0.0982,-0.1078,-0.1128,-0.1143,-0.1146,-0.1098,-0.1029,-0.0825,-0.0725,-0.0414,-0.0032,0.0409,0.0552,0.0928,0.0894,0.107,0.1121,0.1139,0.1233,0.077,0.0875,0.0874,0.0874,0.0873,0.0873,0,-0.0814,-0.0917,-0.1036,-0.1143,-0.1193,-0.1197,-0.1175,-0.1126,-0.1053,-0.0774,-0.061,-0.0014,0.0347,0.0734,0.1174,0.1372,0.1426,0.1474,0.1563,0.1617,0.1232,0.1241,0.142,0.142,0.142,0.1419,0.1419,0.1419,-0.0838,-0.0969,-0.1044,-0.116,-0.1213,-0.1208,-0.1192,-0.1123,-0.0916,-0.0477,-0.0013,0.0341,0.0841,0.1373,0.1765,0.1801,0.1994,0.1956,0.2048,0.1819,0.1786,0.1755,0.1782,0.2071,0.2072,0.2445,0.2449,0.2451]}],[{"header":{"parameterUnit":"m.s-1","parameterCategory":2,"la1":30.2991,"la2":30.254,"lo1":-89.0895,"lo2":-89.0444,"dy":0.0017,"dx":0.0017,"nx":28,"ny":28,"refTime":"2026-02-09T03:00:00:Z","depth":"2","parameterNumber":2,"parameterNumberName":"U-component_of_CURRENTS"},"data":[0,0,0,0,0,0,0,0,0,0,0,0,0,0,0,0,0,0,0,0,0,0,0,0,0,0,0,0,0,0,0,0,0,0,0,0,0,0,0,0,0,0,0,0,0,0,0,0,0,0,0,0,0,0,0,0,0,0,-0.2467,-0.2468,0,-0.2556,-0.2556,-0.2556,-0.2553,-0.2552,-0.2552,-0.2551,-0.268,-0.2684,-0.2688,0,0,0,0,0,0,0,0,0,0,0,0,0,-0.2328,-0.2329,-0.2467,-0.2468,-0.247,-0.2556,-0.2556,-0.2557,-0.2553,-0.2552,-0.2552,-0.2551,-0.2679,-0.2683,-0.2688,0,0,0,0,0,0,0,0,0,0,0,0,0,-0.2392,-0.233,-0.2466,-0.2485,-0.2488,-0.2556,-0.2556,-0.2557,-0.2553,-0.2552,-0.2551,-0.2551,-0.2677,-0.2683,-0.2689,-0.2739,0,0,-0.2707,-0.2709,0,0,0,0,0,0,0,0,-0.2388,-0.2396,-0.248,-0.2484,-0.2488,-0.255,-0.2555,-0.2623,-0.2553,-0.2519,-0.2551,-0.255,-0.2646,-0.2655,-0.266,-0.2746,-0.2751,-0.2707,-0.2711,-0.2713,-0.2715,0,0,0,0,0,0,0,-0.2383,-0.2392,-0.2493,-0.2483,-0.2487,-0.2502,-0.2508,-0.2567,-0.258,-0.2522,-0.2524,-0.2548,-0.2647,-0.2655,-0.2664,-0.2753,-0.2707,-0.2712,-0.2716,-0.2718,-0.2933,-0.2935,0,0,0,0,0,0,-0.2389,-0.2388,-0.2491,-0.2497,-0.2444,-0.2505,-0.2512,-0.2524,-0.2579,-0.2589,-0.2548,-0.2548,-0.2645,-0.2657,-0.2668,-0.2829,-0.2713,-0.2719,-0.2722,-0.2931,-0.2933,-0.2936,0,0,0,0,0,0,-0.2385,-0.2396,-0.2487,-0.2452,-0.2465,-0.2509,-0.2521,-0.2526,-0.2538,-0.26,-0.2608,-0.2556,-0.2645,-0.266,-0.2727,-0.283,-0.2721,-0.2726,-0.2928,-0.2931,-0.2934,-0.3088,0,0,0,0,0,0,-0.238,-0.2394,-0.2414,-0.2452,-0.2468,-0.2523,-0.2523,-0.2529,-0.2557,-0.2557,-0.261,-0.262,-0.2646,-0.2719,-0.2733,-0.2836,-0.2731,-0.2925,-0.2929,-0.2933,-0.308,-0.3096,-0.311,0,0,0,0,0,-0.2375,-0.2396,-0.2414,-0.2428,-0.249,-0.2525,-0.2533,-0.2556,-0.2558,-0.2562,-0.2606,-0.2619,-0.2756,-0.2725,-0.2742,-0.2849,-0.2923,-0.2928,-0.2933,-0.3074,-0.3093,-0.311,0,0,0,0,0,0,-0.2353,-0.24,-0.242,-0.2457,-0.2492,-0.2527,-0.255,-0.2561,-0.2597,-0.262,-0.2644,-0.2658,-0.2761,-0.2764,-0.2729,-0.2916,-0.2844,-0.2853,-0.2946,-0.2964,-0.2979,-0.2904,-0.2736,0,0,0,0,0,-0.2361,-0.2367,-0.243,-0.2449,-0.2481,-0.2516,-0.254,-0.2569,-0.2607,-0.262,-0.2661,-0.2719,-0.2796,-0.2841,-0.2893,-0.2994,-0.2888,-0.307,-0.3085,-0.3098,-0.3045,-0.2942,-0.2942,-0.2952,-0.2952,-0.2952,0,0,-0.235,-0.2381,-0.2383,-0.2443,-0.2475,-0.2528,-0.2525,-0.258,-0.2625,-0.2637,-0.2709,-0.2772,-0.2827,-0.2945,-0.2993,-0.2964,-0.305,-0.3104,-0.3116,-0.3053,-0.2947,-0.2945,-0.2944,-0.2955,-0.2955,-0.2954,0,0,-0.2341,-0.2372,-0.2393,-0.244,-0.2519,-0.2545,-0.2562,-0.263,-0.2662,-0.2736,-0.2784,-0.2865,-0.2966,-0.3034,-0.3078,-0.3191,-0.3124,-0.3259,-0.3295,-0.3201,-0.3197,-0.3193,-0.3095,-0.308,-0.3277,-0.3277,-0.3278,0,-0.2343,-0.2377,-0.2402,-0.2463,-0.2507,-0.2551,-0.2608,-0.2653,-0.2732,-0.2759,-0.2767,-0.2908,-0.2988,-0.3111,-0.3193,-0.3226,-0.3153,-0.3238,-0.3216,-0.3209,-0.3201,-0.3101,-0.3083,-0.3285,-0.3285,-0.3284,-0.3283,0,-0.237,-0.2415,-0.2435,-0.251,-0.2555,-0.2611,-0.2693,-0.276,-0.2799,-0.282,-0.292,-0.3006,-0.3063,-0.3169,-0.3238,-0.3295,-0.3255,-0.324,-0.3164,-0.3209,-0.3103,-0.3081,-0.3297,-0.3294,-0.3292,-0.329,0,0,-0.2318,-0.2434,-0.2442,-0.2485,-0.2599,-0.2627,-0.2736,-0.2806,-0.2826,-0.2917,-0.2921,-0.3121,-0.3125,-0.3172,-0.3282,-0.3269,-0.3234,-0.327,-0.3262,-0.316,-0.3018,-0.2975,-0.2946,-0.3225,-0.3221,-0.3219,-0.2978,0,-0.2334,-0.2432,-0.2491,-0.2563,-0.2615,-0.2714,-0.277,-0.2848,-0.2884,-0.2899,-0.2988,-0.3031,-0.3137,-0.3202,-0.3201,-0.3239,-0.3177,-0.3298,-0.2996,-0.2985,-0.2931,-0.2919,-0.2749,-0.2517,-0.2955,-0.2951,-0.2949,0,-0.234,-0.24,-0.2489,-0.2576,-0.2608,-0.2662,-0.2744,-0.2811,-0.2864,-0.2907,-0.2949,-0.2954,-0.304,-0.3067,-0.3029,-0.3111,-0.3052,-0.3039,-0.3027,-0.2895,-0.29,-0.2535,-0.2459,-0.291,-0.2913,-0.2916,-0.2919,0,-0.2252,-0.2384,-0.2439,-0.2485,-0.2603,-0.2667,-0.2732,-0.2801,-0.2812,-0.2896,-0.2863,-0.2912,-0.2912,-0.2869,-0.2893,-0.2944,-0.2767,-0.2801,-0.2665,-0.2661,-0.2399,-0.2378,-0.2635,-0.2635,-0.2636,-0.2636,-0.2637,0,-0.2213,-0.2267,-0.2408,-0.2438,-0.2477,-0.2603,-0.2626,-0.2725,-0.2763,-0.2733,-0.2833,-0.28,-0.2852,-0.2774,-0.2795,-0.2672,-0.2655,-0.2621,-0.258,-0.2458,-0.2446,-0.2688,-0.2698,-0.2627,-0.2629,-0.2631,-0.2633,0,-0.2104,-0.2206,-0.2263,-0.2394,-0.2431,-0.2461,-0.2554,-0.2542,-0.2643,-0.2608,-0.2625,-0.2657,-0.2617,-0.2606,-0.2533,-0.2507,-0.2434,-0.2368,-0.2241,-0.219,-0.2404,-0.2425,-0.2154,-0.215,-0.2146,-0.2144,-0.2141,0,-0.2084,-0.2092,-0.2192,-0.2188,-0.2251,-0.2323,-0.2337,-0.2479,-0.2473,-0.2521,-0.2468,-0.242,-0.2382,-0.2265,-0.2237,-0.2149,-0.227,-0.1925,-0.1986,-0.2359,-0.2346,-0.2372,-0.2397,-0.1703,-0.1697,-0.1692,-0.1689,0,-0.1992,-0.201,-0.2034,-0.2024,-0.2043,-0.207,-0.2134,-0.2122,-0.2264,-0.2247,-0.2231,-0.2198,-0.21,-0.1967,-0.1878,-0.1831,-0.1956,-0.1826,-0.2163,-0.1896,-0.1925,-0.1919,-0.1957,-0.1647,-0.1651,-0.1654,-0.1656,-0.1658,-0.1898,-0.1874,-0.1863,-0.1831,-0.1841,-0.1831,-0.1833,-0.1893,-0.1893,-0.1887,-0.196,-0.1877,-0.1854,-0.164,-0.1555,-0.1493,-0.1635,-0.1575,-0.1591,-0.1612,-0.1647,-0.1674,-0.1353,-0.1355,-0.1357,-0.1359,-0.1361,0,-0.1755,-0.172,-0.1669,-0.1639,-0.1585,-0.1654,-0.1673,-0.1659,-0.1648,-0.1643,-0.1629,-0.1452,-0.1336,-0.1325,-0.1151,-0.1122,-0.1131,-0.1084,-0.1099,-0.114,-0.1176,-0.1194,-0.0776,-0.0774,-0.0773,-0.0771,0,0,-0.1658,-0.1539,-0.1493,-0.137,-0.1379,-0.1319,-0.132,-0.1307,-0.1295,-0.1241,-0.119,-0.1259,-0.127,-0.1024,-0.0966,-0.0837,-0.0982,-0.0792,-0.1258,-0.1314,-0.1349,-0.1451,-0.1522,0,0,0,0,0]},{"header":{"parameterUnit":"m.s-1","parameterCategory":2,"la1":30.2991,"la2":30.254,"lo1":-89.0895,"lo2":-89.0444,"dy":0.0017,"dx":0.0017,"nx":28,"ny":28,"refTime":"2026-02-09T03:00:00:Z","depth":"2","parameterNumber":3,"parameterNumberName":"V-component_of_CURRENTS"},"data":[0,0,0,0,0,0,0,0,0,0,0,0,0,0,0,0,0,0,0,0,0,0,0,0,0,0,0,0,0,0,0,0,0,0,0,0,0,0,0,0,0,0,0,0,0,0,0,0,0,0,0,0,0,0,0,0,0,0,-0.0525,-0.0524,0,-0.0424,-0.0422,-0.0421,-0.0356,-0.0355,-0.0355,-0.0355,-0.0127,-0.0122,-0.0116,0,0,0,0,0,0,0,0,0,0,0,0,0,-0.0531,-0.0532,-0.0525,-0.0524,-0.0522,-0.0424,-0.0422,-0.0421,-0.0356,-0.0355,-0.0355,-0.0354,-0.0129,-0.0123,-0.0116,0,0,0,0,0,0,0,0,0,0,0,0,0,-0.0488,-0.0532,-0.0525,-0.0479,-0.0473,-0.0424,-0.0422,-0.0421,-0.0356,-0.0355,-0.0355,-0.0354,-0.0132,-0.0123,-0.0115,-0.0072,0,0,-0.0088,-0.0085,0,0,0,0,0,0,0,0,-0.0491,-0.0488,-0.0487,-0.0482,-0.0476,-0.0402,-0.0341,-0.0298,-0.0356,-0.0399,-0.0355,-0.0354,-0.0209,-0.0194,-0.0176,-0.0061,-0.0051,-0.0088,-0.0082,-0.0079,-0.0076,0,0,0,0,0,0,0,-0.0494,-0.0491,-0.0484,-0.0485,-0.0479,-0.0418,-0.0413,-0.0333,-0.0305,-0.0396,-0.0391,-0.0381,-0.0205,-0.0185,-0.017,-0.0048,-0.0088,-0.008,-0.0075,-0.0072,0.0159,0.0159,0,0,0,0,0,0,-0.0516,-0.0495,-0.0487,-0.0481,-0.0483,-0.0419,-0.0413,-0.0426,-0.0308,-0.0291,-0.0382,-0.0378,-0.02,-0.018,-0.0162,-0.0035,-0.0079,-0.0071,-0.0066,0.0158,0.0159,0.016,0,0,0,0,0,0,-0.0517,-0.0517,-0.0491,-0.0484,-0.0477,-0.0421,-0.0435,-0.0424,-0.0403,-0.03,-0.028,-0.0372,-0.0199,-0.0174,-0.01,-0.0028,-0.0067,-0.0059,0.0156,0.0158,0.0159,0.0175,0,0,0,0,0,0,-0.0518,-0.0519,-0.053,-0.0487,-0.0478,-0.0473,-0.0435,-0.0423,-0.0398,-0.0393,-0.0284,-0.0263,-0.0196,-0.0113,-0.0091,-0.0017,-0.0052,0.0155,0.0157,0.0159,0.0174,0.0177,0.018,0,0,0,0,0,-0.0519,-0.0545,-0.0532,-0.053,-0.0499,-0.0474,-0.0464,-0.0419,-0.0398,-0.0397,-0.0325,-0.0266,-0.0085,-0.0107,-0.008,-0.0002,0.0154,0.0157,0.0159,0.0172,0.0176,0.018,0,0,0,0,0,0,-0.0556,-0.054,-0.0524,-0.0545,-0.0514,-0.0463,-0.0458,-0.0425,-0.0369,-0.0356,-0.0263,-0.0237,-0.0147,-0.0092,-0.0118,0.0064,0.0049,0.0057,0.0051,0.0056,0.0059,0.0042,-0.0045,0,0,0,0,0,-0.057,-0.0593,-0.0552,-0.0574,-0.0559,-0.0508,-0.049,-0.0458,-0.0405,-0.0381,-0.0302,-0.0211,-0.0118,-0.0051,0.0016,0.012,0.0114,0.0187,0.019,0.0193,0.0194,0.0234,0.0241,0.0167,0.0167,0.0167,0,0,-0.0593,-0.0587,-0.0599,-0.0583,-0.0556,-0.0542,-0.0497,-0.0477,-0.0448,-0.0361,-0.0298,-0.0212,-0.0101,0.0007,0.0058,0.0071,0.02,0.0196,0.0198,0.0197,0.0237,0.0244,0.0251,0.0168,0.0168,0.0168,0,0,-0.0638,-0.0643,-0.0659,-0.0638,-0.0601,-0.0573,-0.0571,-0.0512,-0.0467,-0.0405,-0.0319,-0.0205,-0.0085,0.0034,0.0106,0.0165,0.0192,0.0205,0.025,0.0289,0.0295,0.0301,0.0252,0.0253,0.0237,0.0238,0.0238,0,-0.0649,-0.0678,-0.0658,-0.0655,-0.0639,-0.0594,-0.0586,-0.0541,-0.0461,-0.041,-0.0395,-0.0182,-0.007,0.0096,0.015,0.018,0.0169,0.0232,0.0293,0.0299,0.0304,0.0254,0.0255,0.0239,0.0238,0.0238,0.0238,0,-0.0689,-0.0706,-0.0717,-0.0706,-0.0686,-0.0683,-0.0617,-0.0576,-0.0522,-0.046,-0.0322,-0.0177,-0.0049,0.0043,0.0138,0.0275,0.0237,0.0267,0.0281,0.0313,0.0256,0.0257,0.024,0.024,0.0239,0.0239,0,0,-0.0729,-0.0739,-0.0744,-0.0745,-0.071,-0.0701,-0.0652,-0.0583,-0.0548,-0.0435,-0.036,-0.0131,-0.0055,0.0032,0.0176,0.0286,0.034,0.0323,0.0325,0.0267,0.0361,0.0421,0.0426,0.0388,0.0389,0.0391,0.0286,0,-0.0757,-0.0785,-0.0769,-0.0788,-0.0794,-0.0732,-0.0701,-0.0627,-0.0554,-0.0477,-0.0291,-0.0183,-0.0062,0.0034,0.0152,0.0305,0.0352,0.0361,0.0344,0.0342,0.0389,0.0435,0.0423,0.0341,0.0287,0.0288,0.0288,0,-0.0796,-0.0811,-0.0833,-0.0832,-0.0825,-0.0821,-0.0761,-0.0717,-0.0592,-0.0517,-0.0381,-0.028,-0.0069,0.0003,0.0203,0.0202,0.0271,0.0368,0.0366,0.0423,0.0408,0.0312,0.0345,0.0289,0.0289,0.0289,0.0289,0,-0.085,-0.0861,-0.0887,-0.0883,-0.0864,-0.0841,-0.082,-0.0727,-0.0677,-0.0538,-0.0495,-0.0309,-0.0198,-0.0065,0.0152,0.0166,0.033,0.034,0.0418,0.0417,0.0407,0.0406,0.0413,0.0413,0.0413,0.0414,0.0414,0,-0.0899,-0.0918,-0.0917,-0.0931,-0.0947,-0.09,-0.0881,-0.0821,-0.0727,-0.0666,-0.0524,-0.043,-0.0196,-0.0068,0.0088,0.0269,0.0241,0.0424,0.0424,0.0407,0.0407,0.0377,0.0374,0.041,0.0411,0.0411,0.0412,0,-0.0949,-0.0955,-0.0986,-0.098,-0.0979,-0.0985,-0.0939,-0.0911,-0.0824,-0.0739,-0.0695,-0.0521,-0.034,-0.0154,0.0072,0.0185,0.0354,0.0403,0.034,0.0339,0.0397,0.0396,0.043,0.0432,0.0434,0.0435,0.0436,0,-0.0971,-0.0996,-0.1032,-0.1049,-0.1045,-0.1039,-0.1027,-0.0954,-0.0909,-0.0774,-0.0731,-0.0566,-0.0406,-0.0106,0.0141,0.0333,0.0365,0.0416,0.048,0.0417,0.0412,0.0409,0.0406,0.0415,0.0416,0.0417,0.0418,0,-0.1,-0.1022,-0.1045,-0.1091,-0.1102,-0.1105,-0.1077,-0.1065,-0.0955,-0.0883,-0.0745,-0.0622,-0.0333,-0.0062,0.0201,0.0327,0.0398,0.0437,0.0399,0.0452,0.0408,0.0402,0.0398,0.0424,0.0423,0.0423,0.0422,0.0422,-0.1009,-0.1043,-0.1081,-0.111,-0.1135,-0.1143,-0.1137,-0.1081,-0.1019,-0.0875,-0.0757,-0.0534,-0.0307,0.0107,0.0292,0.0463,0.0456,0.0505,0.05,0.0495,0.0553,0.052,0.0558,0.0558,0.0558,0.0559,0.0559,0,-0.1011,-0.1048,-0.1084,-0.1126,-0.1149,-0.1158,-0.1142,-0.1102,-0.1022,-0.0854,-0.0692,-0.0397,-0.0113,0.0117,0.0395,0.0551,0.053,0.0573,0.0515,0.0509,0.0503,0.0559,0.0567,0.0567,0.0567,0.0568,0,0,-0.101,-0.1047,-0.1063,-0.1103,-0.1136,-0.1151,-0.1148,-0.1078,-0.096,-0.0775,-0.059,-0.0357,-0.0084,0.0115,0.0306,0.0446,0.0433,0.0456,0.0436,0.0339,0.0331,0.0454,0.0534,0,0,0,0,0]}],[{"header":{"parameterUnit":"m.s-1","parameterCategory":2,"la1":30.2991,"la2":30.254,"lo1":-89.0895,"lo2":-89.0444,"dy":0.0017,"dx":0.0017,"nx":28,"ny":28,"refTime":"2026-02-09T03:00:00:Z","depth":"4","parameterNumber":2,"parameterNumberName":"U-component_of_CURRENTS"},"data":[0,0,0,0,0,0,0,0,0,0,0,0,0,0,0,0,0,0,0,0,0,0,0,0,0,0,0,0,0,0,0,0,0,0,0,0,0,0,0,0,0,0,0,0,0,0,0,0,0,0,0,0,0,0,0,0,0,0,-0.1378,-0.1379,0,-0.1409,-0.1409,-0.1409,-0.1462,-0.1463,-0.1465,-0.1466,-0.1495,-0.1494,-0.1494,0,0,0,0,0,0,0,0,0,0,0,0,0,-0.135,-0.135,-0.1378,-0.1379,-0.138,-0.1409,-0.1409,-0.1409,-0.1462,-0.1463,-0.1465,-0.1466,-0.1495,-0.1494,-0.1494,0,0,0,0,0,0,0,0,0,0,0,0,0,-0.1367,-0.135,-0.1378,-0.1412,-0.1415,-0.1409,-0.1409,-0.1409,-0.1461,-0.1463,-0.1465,-0.1467,-0.1495,-0.1494,-0.1494,-0.1451,0,0,-0.1492,-0.1492,0,0,0,0,0,0,0,0,-0.1366,-0.1367,-0.1406,-0.1409,-0.1413,-0.1437,-0.141,-0.1424,-0.1461,-0.1441,-0.1466,-0.1468,-0.1476,-0.1477,-0.1474,-0.1453,-0.1454,-0.1492,-0.1491,-0.1491,-0.1491,0,0,0,0,0,0,0,-0.1364,-0.1366,-0.1387,-0.1407,-0.1411,-0.142,-0.1425,-0.1413,-0.1444,-0.1442,-0.1447,-0.1455,-0.1478,-0.1474,-0.1475,-0.1454,-0.1492,-0.1491,-0.1491,-0.1491,-0.1541,-0.1543,0,0,0,0,0,0,-0.1365,-0.1365,-0.1386,-0.1389,-0.1397,-0.142,-0.1424,-0.1425,-0.1445,-0.1451,-0.1453,-0.1457,-0.1474,-0.1476,-0.1476,-0.153,-0.1491,-0.149,-0.149,-0.1539,-0.1541,-0.1543,0,0,0,0,0,0,-0.1365,-0.1367,-0.1385,-0.1381,-0.1384,-0.1418,-0.1418,-0.1424,-0.1457,-0.1454,-0.1459,-0.1485,-0.1476,-0.1477,-0.1497,-0.1528,-0.149,-0.149,-0.1537,-0.154,-0.1542,-0.1571,0,0,0,0,0,0,-0.1363,-0.1366,-0.1374,-0.138,-0.1385,-0.1406,-0.1417,-0.1424,-0.1458,-0.1465,-0.1482,-0.1484,-0.1477,-0.1498,-0.1497,-0.1526,-0.1489,-0.1535,-0.1538,-0.1541,-0.1568,-0.1574,-0.158,0,0,0,0,0,-0.1362,-0.1357,-0.1374,-0.1377,-0.1391,-0.1407,-0.141,-0.1439,-0.1459,-0.1475,-0.1489,-0.1486,-0.1519,-0.1498,-0.1496,-0.1526,-0.1533,-0.1537,-0.1541,-0.1565,-0.1573,-0.158,0,0,0,0,0,0,-0.1339,-0.1363,-0.1381,-0.1382,-0.1409,-0.1418,-0.143,-0.1454,-0.1476,-0.1485,-0.1489,-0.1492,-0.1527,-0.1522,-0.15,-0.1555,-0.1533,-0.1536,-0.1552,-0.1559,-0.1565,-0.1578,-0.1489,0,0,0,0,0,-0.134,-0.1351,-0.1375,-0.138,-0.1393,-0.1418,-0.1432,-0.1453,-0.147,-0.1484,-0.1504,-0.1522,-0.1533,-0.1544,-0.1553,-0.1566,-0.156,-0.1592,-0.1598,-0.1603,-0.1615,-0.1606,-0.1611,-0.1556,-0.1556,-0.1556,0,0,-0.1329,-0.1347,-0.1352,-0.1378,-0.1395,-0.142,-0.1431,-0.1456,-0.1489,-0.1479,-0.1533,-0.154,-0.1543,-0.1569,-0.1585,-0.1572,-0.1622,-0.1608,-0.1612,-0.1621,-0.1611,-0.1616,-0.162,-0.1559,-0.1558,-0.1558,0,0,-0.132,-0.1334,-0.1348,-0.1373,-0.1412,-0.1427,-0.1445,-0.1481,-0.1513,-0.1555,-0.156,-0.158,-0.1616,-0.1611,-0.1614,-0.1655,-0.1653,-0.1681,-0.1716,-0.1707,-0.1711,-0.1714,-0.1732,-0.1736,-0.1683,-0.1683,-0.1683,0,-0.1316,-0.1331,-0.1355,-0.1381,-0.1403,-0.1439,-0.1463,-0.1494,-0.154,-0.1561,-0.1587,-0.1635,-0.1632,-0.1645,-0.1673,-0.1665,-0.1679,-0.1682,-0.1712,-0.1715,-0.1718,-0.1735,-0.1739,-0.1685,-0.1685,-0.1685,-0.1684,0,-0.1318,-0.1344,-0.1351,-0.1401,-0.1428,-0.1448,-0.1497,-0.1536,-0.1586,-0.1618,-0.1671,-0.1675,-0.1704,-0.1713,-0.171,-0.1736,-0.1747,-0.1716,-0.1686,-0.1725,-0.1741,-0.1745,-0.1688,-0.1687,-0.1686,-0.1686,0,0,-0.1272,-0.1342,-0.135,-0.1379,-0.1439,-0.1457,-0.1513,-0.1563,-0.1596,-0.1665,-0.1709,-0.1742,-0.1761,-0.1767,-0.1763,-0.1765,-0.1796,-0.1769,-0.1767,-0.1774,-0.1814,-0.1683,-0.1674,-0.1778,-0.1778,-0.1779,-0.1823,0,-0.1272,-0.1326,-0.136,-0.1409,-0.1435,-0.1484,-0.1528,-0.158,-0.1635,-0.1687,-0.1717,-0.1754,-0.1777,-0.179,-0.1805,-0.1794,-0.1808,-0.1789,-0.1787,-0.1788,-0.1654,-0.1674,-0.1781,-0.1826,-0.1827,-0.1828,-0.1828,0,-0.1252,-0.13,-0.1354,-0.1415,-0.143,-0.1467,-0.153,-0.1576,-0.1647,-0.1687,-0.1743,-0.1778,-0.1816,-0.1815,-0.185,-0.1848,-0.185,-0.1841,-0.1841,-0.171,-0.1662,-0.1778,-0.1835,-0.1835,-0.1834,-0.1834,-0.1833,0,-0.1199,-0.1278,-0.1326,-0.1351,-0.1435,-0.1466,-0.1508,-0.1578,-0.1616,-0.1687,-0.1731,-0.1782,-0.1824,-0.1836,-0.1867,-0.1863,-0.1894,-0.1864,-0.1752,-0.1745,-0.1838,-0.1833,-0.1878,-0.1878,-0.1878,-0.1878,-0.1878,0,-0.1157,-0.1194,-0.1311,-0.1334,-0.1372,-0.1446,-0.1485,-0.1528,-0.1607,-0.1654,-0.1734,-0.1779,-0.1837,-0.1876,-0.1878,-0.1839,-0.1905,-0.1765,-0.1738,-0.1854,-0.1851,-0.1841,-0.1837,-0.1879,-0.1879,-0.1879,-0.1878,0,-0.1076,-0.1158,-0.1208,-0.1315,-0.1344,-0.1371,-0.1458,-0.1493,-0.158,-0.1648,-0.1679,-0.1793,-0.183,-0.1871,-0.1883,-0.1838,-0.1801,-0.1769,-0.1924,-0.1904,-0.1663,-0.166,-0.1636,-0.1632,-0.1628,-0.1625,-0.1622,0,-0.1039,-0.1068,-0.1176,-0.12,-0.1249,-0.131,-0.135,-0.1451,-0.1503,-0.1648,-0.1681,-0.1763,-0.1822,-0.1751,-0.1788,-0.1754,-0.1731,-0.1715,-0.1662,-0.1658,-0.1635,-0.1637,-0.1639,-0.1616,-0.1615,-0.1614,-0.1613,0,-0.0966,-0.1017,-0.1059,-0.1115,-0.1166,-0.1219,-0.13,-0.1326,-0.1466,-0.1563,-0.1624,-0.1637,-0.1677,-0.1672,-0.1657,-0.1635,-0.1716,-0.1675,-0.1682,-0.1632,-0.1633,-0.1614,-0.1621,-0.16,-0.1602,-0.1603,-0.1604,0,-0.0906,-0.0907,-0.0973,-0.1007,-0.1076,-0.1129,-0.1173,-0.1255,-0.1316,-0.1493,-0.1508,-0.1592,-0.1676,-0.1612,-0.1603,-0.1557,-0.1521,-0.1465,-0.1483,-0.1498,-0.1424,-0.1403,-0.1276,0,0,0,0,0,-0.0833,-0.0831,-0.0863,-0.0908,-0.0984,-0.1031,-0.115,-0.1217,-0.1363,-0.1363,-0.143,-0.1454,-0.1441,-0.148,-0.1396,-0.152,-0.152,-0.1416,-0.1464,-0.1527,-0.1542,-0.1463,0,0,0,0,0,0,-0.078,-0.0804,-0.0826,-0.0842,-0.0862,-0.0946,-0.1022,-0.1122,-0.1132,-0.1268,-0.1262,-0.1351,-0.1349,-0.1455,-0.1361,-0.1368,-0.1364,-0.1459,-0.1454,-0.1518,-0.1532,-0.1544,-0.1469,0,0,0,0,0]},{"header":{"parameterUnit":"m.s-1","parameterCategory":2,"la1":30.2991,"la2":30.254,"lo1":-89.0895,"lo2":-89.0444,"dy":0.0017,"dx":0.0017,"nx":28,"ny":28,"refTime":"2026-02-09T03:00:00:Z","depth":"4","parameterNumber":3,"parameterNumberName":"V-component_of_CURRENTS"},"data":[0,0,0,0,0,0,0,0,0,0,0,0,0,0,0,0,0,0,0,0,0,0,0,0,0,0,0,0,0,0,0,0,0,0,0,0,0,0,0,0,0,0,0,0,0,0,0,0,0,0,0,0,0,0,0,0,0,0,-0.0462,-0.0462,0,-0.0439,-0.0438,-0.0438,-0.0414,-0.0413,-0.0413,-0.0412,-0.0362,-0.0361,-0.036,0,0,0,0,0,0,0,0,0,0,0,0,0,-0.0424,-0.0425,-0.0463,-0.0462,-0.0462,-0.0439,-0.0438,-0.0438,-0.0414,-0.0413,-0.0413,-0.0412,-0.0362,-0.0361,-0.036,0,0,0,0,0,0,0,0,0,0,0,0,0,-0.0425,-0.0425,-0.0463,-0.0446,-0.0445,-0.0439,-0.0438,-0.0438,-0.0414,-0.0413,-0.0413,-0.0412,-0.0362,-0.0361,-0.036,-0.0362,0,0,-0.0355,-0.0354,0,0,0,0,0,0,0,0,-0.0425,-0.0426,-0.0449,-0.0448,-0.0446,-0.0428,-0.0406,-0.0411,-0.0414,-0.0426,-0.0412,-0.0412,-0.0382,-0.0378,-0.0376,-0.0359,-0.0357,-0.0355,-0.0354,-0.0353,-0.0353,0,0,0,0,0,0,0,-0.0425,-0.0427,-0.0454,-0.0449,-0.0447,-0.0419,-0.0419,-0.0407,-0.0407,-0.0425,-0.0423,-0.042,-0.038,-0.0378,-0.0375,-0.0357,-0.0355,-0.0354,-0.0353,-0.0352,-0.0344,-0.0345,0,0,0,0,0,0,-0.0431,-0.0427,-0.0454,-0.0453,-0.0433,-0.042,-0.042,-0.0435,-0.0408,-0.0403,-0.042,-0.0419,-0.0381,-0.0377,-0.0373,-0.0396,-0.0353,-0.0352,-0.0351,-0.0343,-0.0344,-0.0345,0,0,0,0,0,0,-0.0431,-0.0435,-0.0455,-0.0438,-0.0438,-0.0422,-0.0438,-0.0434,-0.0436,-0.0404,-0.0399,-0.0425,-0.038,-0.0375,-0.0377,-0.0393,-0.0351,-0.035,-0.0343,-0.0344,-0.0345,-0.0428,0,0,0,0,0,0,-0.043,-0.0435,-0.0453,-0.0439,-0.044,-0.0458,-0.0438,-0.0434,-0.0434,-0.0432,-0.0407,-0.0402,-0.0379,-0.0379,-0.0375,-0.039,-0.0349,-0.0342,-0.0343,-0.0344,-0.0424,-0.0432,-0.0438,0,0,0,0,0,-0.0429,-0.0453,-0.0454,-0.0457,-0.0464,-0.0459,-0.0457,-0.0442,-0.0435,-0.0441,-0.043,-0.0403,-0.0384,-0.0379,-0.0374,-0.0389,-0.0341,-0.0343,-0.0344,-0.0421,-0.043,-0.0438,0,0,0,0,0,0,-0.045,-0.0452,-0.0453,-0.0479,-0.0473,-0.0454,-0.0462,-0.045,-0.0446,-0.045,-0.0418,-0.0412,-0.0417,-0.0392,-0.0388,-0.0389,-0.0355,-0.0356,-0.0416,-0.0424,-0.043,-0.0428,-0.0348,0,0,0,0,0,-0.0463,-0.0482,-0.0474,-0.0497,-0.0497,-0.0483,-0.0481,-0.0473,-0.0464,-0.0462,-0.0442,-0.0425,-0.0419,-0.0414,-0.04,-0.0405,-0.0343,-0.0408,-0.0415,-0.0421,-0.0415,-0.0349,-0.0349,-0.035,-0.035,-0.035,0,0,-0.0479,-0.0483,-0.0495,-0.0503,-0.05,-0.0508,-0.0481,-0.0488,-0.0493,-0.0458,-0.0464,-0.045,-0.0426,-0.0434,-0.0433,-0.0416,-0.0385,-0.0423,-0.0429,-0.0419,-0.0351,-0.035,-0.035,-0.0351,-0.0351,-0.0351,0,0,-0.0509,-0.0524,-0.0544,-0.0544,-0.0544,-0.0536,-0.0541,-0.0528,-0.0522,-0.0527,-0.0507,-0.0514,-0.0486,-0.0485,-0.0479,-0.0516,-0.0425,-0.0497,-0.053,-0.0468,-0.0467,-0.0465,-0.0371,-0.036,-0.05,-0.05,-0.0501,0,-0.0525,-0.0555,-0.0548,-0.0563,-0.0569,-0.0552,-0.057,-0.0565,-0.0552,-0.0546,-0.0537,-0.0514,-0.0516,-0.0521,-0.0542,-0.0534,-0.0455,-0.0506,-0.0476,-0.0473,-0.047,-0.0373,-0.0361,-0.0505,-0.0504,-0.0504,-0.0503,0,-0.056,-0.0589,-0.0601,-0.0618,-0.0623,-0.0639,-0.0629,-0.0631,-0.0621,-0.0603,-0.0597,-0.0593,-0.0574,-0.0584,-0.0581,-0.0565,-0.05,-0.0493,-0.0456,-0.0475,-0.0372,-0.0357,-0.0511,-0.0509,-0.0508,-0.0507,0,0,-0.0578,-0.0618,-0.0623,-0.0644,-0.0656,-0.0662,-0.0678,-0.0675,-0.0674,-0.0658,-0.0642,-0.0665,-0.064,-0.0632,-0.0621,-0.0587,-0.0524,-0.0532,-0.0527,-0.0438,-0.0334,-0.0339,-0.0322,-0.0493,-0.0491,-0.049,-0.0264,0,-0.0605,-0.0653,-0.0661,-0.0705,-0.0729,-0.0725,-0.0735,-0.073,-0.0713,-0.069,-0.0673,-0.0657,-0.066,-0.0654,-0.0622,-0.0549,-0.0489,-0.0583,-0.0327,-0.032,-0.0323,-0.0308,-0.0484,-0.0253,-0.0249,-0.0247,-0.0245,0,-0.0629,-0.066,-0.0714,-0.0751,-0.0759,-0.078,-0.079,-0.0794,-0.076,-0.0742,-0.0713,-0.067,-0.0637,-0.0632,-0.049,-0.0534,-0.0439,-0.0374,-0.0364,-0.0329,-0.0298,-0.0231,-0.0217,-0.0219,-0.0221,-0.0223,-0.0225,0,-0.0641,-0.0693,-0.0741,-0.0756,-0.0793,-0.0813,-0.0824,-0.0811,-0.0802,-0.0764,-0.0733,-0.067,-0.0622,-0.0513,-0.0398,-0.0421,-0.0205,-0.022,-0.0121,-0.0117,-0.0142,-0.0146,-0.0095,-0.0095,-0.0096,-0.0096,-0.0097,0,-0.0663,-0.0701,-0.0755,-0.0782,-0.0824,-0.0838,-0.0861,-0.0859,-0.0832,-0.0803,-0.0755,-0.0698,-0.0584,-0.0452,-0.0356,-0.0184,-0.0161,-0.0109,-0.0065,-0.018,-0.0192,-0.0129,-0.0137,-0.0088,-0.009,-0.0092,-0.0093,0,-0.067,-0.071,-0.0765,-0.0819,-0.0837,-0.0865,-0.0889,-0.089,-0.0864,-0.0819,-0.0799,-0.0682,-0.0517,-0.0382,-0.0185,-0.0123,0.0025,0.0087,-0.0011,0.0023,0.0071,0.0057,0.0226,0.0228,0.0229,0.023,0.0231,0,-0.0677,-0.071,-0.0789,-0.0823,-0.0854,-0.0894,-0.0913,-0.0911,-0.0897,-0.0801,-0.0762,-0.0598,-0.051,-0.0205,-0.0098,0.0119,0.0125,0.0217,0.0096,0.0075,0.0102,0.0086,0.0071,0.0233,0.0233,0.0234,0.0234,0,-0.0683,-0.0718,-0.0763,-0.0834,-0.0877,-0.0912,-0.0932,-0.0916,-0.0882,-0.0854,-0.0694,-0.055,-0.0353,-0.0177,-0.0001,0.0135,0.015,0.0231,0.0228,0.0115,0.0086,0.0108,0.0091,0.0239,0.0238,0.0238,0.0237,0,-0.0677,-0.071,-0.0774,-0.083,-0.0887,-0.091,-0.0923,-0.0878,-0.0851,-0.0741,-0.0679,-0.0489,-0.0375,-0.0162,-0.0008,0.0126,0.0134,0.015,0.0151,0.0148,0.0018,-0.0037,0.0134,0,0,0,0,0,-0.0664,-0.0704,-0.076,-0.0824,-0.0881,-0.0913,-0.0923,-0.092,-0.0876,-0.0758,-0.0716,-0.0534,-0.0289,-0.0181,-0.0042,-0.0021,0.0131,0.0141,0.0142,0.0265,0.0259,0.0114,0,0,0,0,0,0,-0.0658,-0.0715,-0.0751,-0.0807,-0.0849,-0.0899,-0.0909,-0.0882,-0.0806,-0.074,-0.06,-0.0521,-0.0282,-0.0364,-0.0044,-0.0004,0.001,0.0256,0.0259,0.0268,0.0263,0.0258,0.0108,0,0,0,0,0]}]]